Time,TemperatureF,DewpointF,PressureIn,WindDirection,WindDirectionDegrees,WindSpeedMPH,WindSpeedGustMPH,Humidity,HourlyPrecipIn,Conditions,Clouds,dailyrainin,SoftwareType,DateUTC
2013-02-12 00:12:00,38.4,37.0,30.26,South,184,0.0,0.0,96,0.00,,,0.00,weatherlink.com 1.10,2013-02-12 08:12:00,
2013-02-12 00:27:00,38.1,37.0,30.27,South,184,0.0,0.0,96,0.00,,,0.00,weatherlink.com 1.10,2013-02-12 08:27:00,
2013-02-12 00:42:00,37.9,37.0,30.27,South,184,0.0,0.0,96,0.00,,,0.00,weatherlink.com 1.10,2013-02-12 08:42:00,
2013-02-12 00:57:00,37.5,37.0,30.27,South,185,0.0,0.0,96,0.00,,,0.00,weatherlink.com 1.10,2013-02-12 08:57:00,
2013-02-12 01:12:00,37.3,36.0,30.27,South,184,0.0,0.0,96,0.00,,,0.00,weatherlink.com 1.10,2013-02-12 09:12:00,
2013-02-12 01:27:00,37.2,37.0,30.27,South,185,0.0,0.0,97,0.00,,,0.00,weatherlink.com 1.10,2013-02-12 09:27:00,
2013-02-12 01:42:00,36.9,36.0,30.27,South,184,0.0,0.0,97,0.00,,,0.00,weatherlink.com 1.10,2013-02-12 09:42:00,
2013-02-12 01:56:00,36.7,36.0,30.28,South,184,0.0,0.0,97,0.00,,,0.00,weatherlink.com 1.10,2013-02-12 09:56:00,
2013-02-12 02:12:00,36.4,36.0,30.28,South,184,0.0,0.0,97,0.00,,,0.00,weatherlink.com 1.10,2013-02-12 10:12:00,
2013-02-12 02:27:00,36.2,36.0,30.28,South,184,0.0,0.0,97,0.00,,,0.00,weatherlink.com 1.10,2013-02-12 10:27:00,
2013-02-12 02:42:00,35.9,35.0,30.28,South,184,0.0,0.0,97,0.00,,,0.00,weatherlink.com 1.10,2013-02-12 10:42:00,
2013-02-12 02:58:00,35.7,35.0,30.28,South,184,0.0,0.0,97,0.00,,,0.00,weatherlink.com 1.10,2013-02-12 10:58:00,
2013-02-12 03:13:00,35.5,35.0,30.28,South,184,0.0,0.0,97,0.00,,,0.00,weatherlink.com 1.10,2013-02-12 11:13:00,
2013-02-12 03:27:00,35.4,35.0,30.28,South,184,0.0,0.0,97,0.00,,,0.00,weatherlink.com 1.10,2013-02-12 11:27:00,
2013-02-12 03:42:00,35.1,34.0,30.28,South,184,0.0,0.0,97,0.00,,,0.00,weatherlink.com 1.10,2013-02-12 11:42:00,
2013-02-12 03:58:00,34.8,34.0,30.28,South,184,0.0,0.0,97,0.00,,,0.00,weatherlink.com 1.10,2013-02-12 11:58:00,
2013-02-12 04:12:00,34.7,34.0,30.28,South,184,0.0,0.0,97,0.00,,,0.00,weatherlink.com 1.10,2013-02-12 12:12:00,
2013-02-12 04:28:00,34.5,34.0,30.29,South,184,0.0,0.0,97,0.00,,,0.00,weatherlink.com 1.10,2013-02-12 12:28:00,
2013-02-12 04:43:00,34.3,34.0,30.30,South,184,0.0,0.0,97,0.00,,,0.00,weatherlink.com 1.10,2013-02-12 12:43:00,
2013-02-12 04:58:00,34.1,33.0,30.30,South,184,0.0,0.0,97,0.00,,,0.00,weatherlink.com 1.10,2013-02-12 12:58:00,
2013-02-12 05:13:00,33.8,33.0,30.31,South,184,0.0,0.0,97,0.00,,,0.00,weatherlink.com 1.10,2013-02-12 13:13:00,
2013-02-12 05:28:00,33.7,33.0,30.32,South,184,0.0,0.0,97,0.00,,,0.00,weatherlink.com 1.10,2013-02-12 13:28:00,
2013-02-12 05:43:00,33.6,33.0,30.32,South,184,0.0,0.0,97,0.00,,,0.00,weatherlink.com 1.10,2013-02-12 13:43:00,
2013-02-12 05:58:00,33.5,33.0,30.33,South,184,0.0,0.0,97,0.00,,,0.00,weatherlink.com 1.10,2013-02-12 13:58:00,
2013-02-12 06:13:00,33.2,33.0,30.33,South,184,0.0,0.0,97,0.00,,,0.00,weatherlink.com 1.10,2013-02-12 14:13:00,
2013-02-12 06:28:00,33.0,32.0,30.34,South,184,0.0,0.0,97,0.00,,,0.00,weatherlink.com 1.10,2013-02-12 14:28:00,
2013-02-12 06:43:00,32.9,32.0,30.34,South,184,0.0,0.0,97,0.00,,,0.00,weatherlink.com 1.10,2013-02-12 14:43:00,
2013-02-12 06:58:00,32.8,32.0,30.35,South,184,0.0,0.0,97,0.00,,,0.00,weatherlink.com 1.10,2013-02-12 14:58:00,
2013-02-12 07:13:00,32.6,32.0,30.36,South,184,0.0,0.0,97,0.00,,,0.00,weatherlink.com 1.10,2013-02-12 15:13:00,
2013-02-12 07:28:00,32.5,32.0,30.37,South,184,0.0,0.0,97,0.00,,,0.00,weatherlink.com 1.10,2013-02-12 15:28:00,
2013-02-12 07:43:00,32.5,32.0,30.37,South,184,0.0,0.0,97,0.00,,,0.00,weatherlink.com 1.10,2013-02-12 15:43:00,
2013-02-12 07:58:00,32.5,32.0,30.38,South,184,0.0,0.0,97,0.00,,,0.00,weatherlink.com 1.10,2013-02-12 15:58:00,
2013-02-12 08:13:00,32.6,32.0,30.38,South,184,0.0,0.0,98,0.00,,,0.00,weatherlink.com 1.10,2013-02-12 16:13:00,
2013-02-12 08:28:00,33.0,33.0,30.38,South,184,0.0,0.0,98,0.00,,,0.00,weatherlink.com 1.10,2013-02-12 16:28:00,
2013-02-12 08:43:00,33.5,33.0,30.39,South,184,0.0,0.0,98,0.00,,,0.00,weatherlink.com 1.10,2013-02-12 16:43:00,
2013-02-12 08:58:00,34.1,34.0,30.39,South,184,0.0,0.0,98,0.00,,,0.00,weatherlink.com 1.10,2013-02-12 16:58:00,
2013-02-12 09:13:00,34.9,34.0,30.39,South,184,0.0,0.0,98,0.00,,,0.00,weatherlink.com 1.10,2013-02-12 17:13:00,
2013-02-12 09:28:00,35.7,35.0,30.39,South,183,0.0,0.0,98,0.00,,,0.00,weatherlink.com 1.10,2013-02-12 17:28:00,
2013-02-12 09:43:00,37.1,37.0,30.40,South,184,0.0,0.0,99,0.00,,,0.00,weatherlink.com 1.10,2013-02-12 17:43:00,
2013-02-12 09:58:00,38.5,38.0,30.40,South,184,0.0,0.0,99,0.00,,,0.00,weatherlink.com 1.10,2013-02-12 17:58:00,
2013-02-12 10:13:00,40.6,40.0,30.39,South,183,0.0,0.0,99,0.00,,,0.00,weatherlink.com 1.10,2013-02-12 18:13:00,
2013-02-12 10:28:00,42.8,43.0,30.39,South,183,0.0,0.0,99,0.00,,,0.00,weatherlink.com 1.10,2013-02-12 18:28:00,
2013-02-12 10:58:00,45.7,45.0,30.39,South,183,0.0,0.0,98,0.00,,,0.00,weatherlink.com 1.10,2013-02-12 18:58:00,
2013-02-12 11:14:00,47.1,46.0,30.39,South,184,0.0,0.0,94,0.00,,,0.00,weatherlink.com 1.10,2013-02-12 19:14:00,
2013-02-12 11:28:00,48.2,46.0,30.39,South,183,0.0,0.0,91,0.00,,,0.00,weatherlink.com 1.10,2013-02-12 19:28:00,
2013-02-12 11:44:00,49.4,46.0,30.39,South,183,0.0,0.0,88,0.00,,,0.00,weatherlink.com 1.10,2013-02-12 19:44:00,
2013-02-12 11:59:00,50.8,47.0,30.38,ESE,116,0.0,0.0,85,0.00,,,0.00,weatherlink.com 1.10,2013-02-12 19:59:00,
2013-02-12 12:14:00,52.7,47.0,30.38,East,100,0.0,1.0,82,0.00,,,0.00,weatherlink.com 1.10,2013-02-12 20:14:00,
2013-02-12 12:29:00,53.4,48.0,30.37,NE,35,0.0,1.0,82,0.00,,,0.00,weatherlink.com 1.10,2013-02-12 20:29:00,
2013-02-12 12:44:00,54.6,48.0,30.36,NE,39,1.0,1.0,79,0.00,,,0.00,weatherlink.com 1.10,2013-02-12 20:44:00,
2013-02-12 12:59:00,55.2,48.0,30.36,NNE,23,1.0,2.0,77,0.00,,,0.00,weatherlink.com 1.10,2013-02-12 20:59:00,
2013-02-12 13:14:00,55.4,48.0,30.35,NE,53,0.0,1.0,77,0.00,,,0.00,weatherlink.com 1.10,2013-02-12 21:14:00,
2013-02-12 13:29:00,56.0,49.0,30.34,East,101,0.0,1.0,77,0.00,,,0.00,weatherlink.com 1.10,2013-02-12 21:29:00,
2013-02-12 13:44:00,55.9,49.0,30.34,SSE,148,0.0,1.0,77,0.00,,,0.00,weatherlink.com 1.10,2013-02-12 21:44:00,
2013-02-12 13:59:00,55.8,50.0,30.34,South,180,0.0,1.0,80,0.00,,,0.00,weatherlink.com 1.10,2013-02-12 21:59:00,
2013-02-12 14:14:00,55.7,50.0,30.33,SE,141,1.0,1.0,81,0.00,,,0.00,weatherlink.com 1.10,2013-02-12 22:14:00,
2013-02-12 14:29:00,55.8,50.0,30.33,SW,217,0.0,0.0,81,0.00,,,0.00,weatherlink.com 1.10,2013-02-12 22:29:00,
2013-02-12 14:44:00,55.2,50.0,30.32,SW,217,0.0,0.0,82,0.00,,,0.00,weatherlink.com 1.10,2013-02-12 22:44:00,
2013-02-12 14:59:00,54.8,50.0,30.32,SW,217,0.0,0.0,84,0.00,,,0.00,weatherlink.com 1.10,2013-02-12 22:59:00,
2013-02-12 15:14:00,54.3,50.0,30.32,SW,217,0.0,0.0,86,0.00,,,0.00,weatherlink.com 1.10,2013-02-12 23:14:00,
2013-02-12 15:29:00,53.7,50.0,30.32,SW,217,0.0,0.0,87,0.00,,,0.00,weatherlink.com 1.10,2013-02-12 23:29:00,
2013-02-12 15:44:00,53.1,50.0,30.32,SW,217,0.0,0.0,88,0.00,,,0.00,weatherlink.com 1.10,2013-02-12 23:44:00,
2013-02-12 15:59:00,52.6,50.0,30.32,SW,217,0.0,0.0,89,0.00,,,0.00,weatherlink.com 1.10,2013-02-12 23:59:00,
2013-02-12 16:14:00,52.2,49.0,30.32,SW,218,0.0,0.0,90,0.00,,,0.00,weatherlink.com 1.10,2013-02-13 00:14:00,
2013-02-12 16:29:00,52.0,49.0,30.32,SW,217,0.0,0.0,90,0.00,,,0.00,weatherlink.com 1.10,2013-02-13 00:29:00,
2013-02-12 16:44:00,51.6,49.0,30.33,SW,217,0.0,0.0,91,0.00,,,0.00,weatherlink.com 1.10,2013-02-13 00:44:00,
2013-02-12 16:59:00,51.1,49.0,30.32,SW,217,0.0,0.0,91,0.00,,,0.00,weatherlink.com 1.10,2013-02-13 00:59:00,
2013-02-12 17:15:00,50.6,48.0,30.32,SW,217,0.0,0.0,91,0.00,,,0.00,weatherlink.com 1.10,2013-02-13 01:15:00,
2013-02-12 17:30:00,50.1,48.0,30.32,SW,217,0.0,0.0,91,0.00,,,0.00,weatherlink.com 1.10,2013-02-13 01:30:00,
2013-02-12 17:45:00,49.4,47.0,30.32,SW,218,0.0,0.0,91,0.00,,,0.00,weatherlink.com 1.10,2013-02-13 01:45:00,
2013-02-12 17:59:00,48.8,46.0,30.32,SW,217,0.0,0.0,91,0.00,,,0.00,weatherlink.com 1.10,2013-02-13 01:59:00,
2013-02-12 18:14:00,48.1,46.0,30.33,SW,218,0.0,0.0,91,0.00,,,0.00,weatherlink.com 1.10,2013-02-13 02:14:00,
2013-02-12 18:29:00,47.4,45.0,30.33,SW,218,0.0,0.0,92,0.00,,,0.00,weatherlink.com 1.10,2013-02-13 02:29:00,
2013-02-12 18:44:00,46.7,45.0,30.33,SW,218,0.0,0.0,93,0.00,,,0.00,weatherlink.com 1.10,2013-02-13 02:44:00,
2013-02-12 19:00:00,46.1,44.0,30.33,SW,218,0.0,0.0,93,0.00,,,0.00,weatherlink.com 1.10,2013-02-13 03:00:00,
2013-02-12 19:15:00,45.5,44.0,30.33,SW,218,0.0,0.0,94,0.00,,,0.00,weatherlink.com 1.10,2013-02-13 03:15:00,
2013-02-12 19:29:00,45.1,44.0,30.34,SW,219,0.0,0.0,94,0.00,,,0.00,weatherlink.com 1.10,2013-02-13 03:29:00,
2013-02-12 19:45:00,44.6,43.0,30.34,SW,218,0.0,0.0,94,0.00,,,0.00,weatherlink.com 1.10,2013-02-13 03:45:00,
2013-02-12 19:59:00,44.2,43.0,30.34,SW,218,0.0,0.0,95,0.00,,,0.00,weatherlink.com 1.10,2013-02-13 03:59:00,
2013-02-12 20:14:00,43.8,43.0,30.35,SW,218,0.0,0.0,95,0.00,,,0.00,weatherlink.com 1.10,2013-02-13 04:14:00,
2013-02-12 20:29:00,43.4,42.0,30.35,SW,218,0.0,0.0,95,0.00,,,0.00,weatherlink.com 1.10,2013-02-13 04:29:00,
2013-02-12 20:44:00,43.0,42.0,30.35,SW,218,0.0,0.0,95,0.00,,,0.00,weatherlink.com 1.10,2013-02-13 04:44:00,
2013-02-12 20:59:00,42.7,42.0,30.35,SW,218,0.0,0.0,96,0.00,,,0.00,weatherlink.com 1.10,2013-02-13 04:59:00,
2013-02-12 21:15:00,42.4,41.0,30.36,SW,218,0.0,0.0,96,0.00,,,0.00,weatherlink.com 1.10,2013-02-13 05:15:00,
2013-02-12 21:29:00,42.0,41.0,30.36,SW,218,0.0,0.0,96,0.00,,,0.00,weatherlink.com 1.10,2013-02-13 05:29:00,
2013-02-12 21:45:00,41.6,41.0,30.36,SW,218,0.0,0.0,96,0.00,,,0.00,weatherlink.com 1.10,2013-02-13 05:45:00,
2013-02-12 21:59:00,41.3,40.0,30.36,SW,219,0.0,0.0,96,0.00,,,0.00,weatherlink.com 1.10,2013-02-13 05:59:00,
2013-02-12 22:13:00,41.1,40.0,30.36,SW,218,0.0,0.0,96,0.00,,,0.00,weatherlink.com 1.10,2013-02-13 06:13:00,
2013-02-12 22:29:00,40.8,40.0,30.36,SW,218,0.0,0.0,96,0.00,,,0.00,weatherlink.com 1.10,2013-02-13 06:29:00,
2013-02-12 22:45:00,40.4,39.0,30.36,SW,218,0.0,0.0,96,0.00,,,0.00,weatherlink.com 1.10,2013-02-13 06:45:00,
2013-02-12 23:00:00,40.1,39.0,30.36,SW,218,0.0,0.0,96,0.00,,,0.00,weatherlink.com 1.10,2013-02-13 07:00:00,
2013-02-12 23:14:00,39.7,39.0,30.36,SW,218,0.0,0.0,96,0.00,,,0.00,weatherlink.com 1.10,2013-02-13 07:14:00,
2013-02-12 23:29:00,39.5,39.0,30.36,SW,218,0.0,0.0,97,0.00,,,0.00,weatherlink.com 1.10,2013-02-13 07:29:00,
2013-02-12 23:44:00,39.2,39.0,30.37,SW,218,0.0,0.0,97,0.00,,,0.00,weatherlink.com 1.10,2013-02-13 07:44:00,
2013-02-12 23:59:00,39.0,38.0,30.37,SW,218,0.0,0.0,97,0.00,,,0.00,weatherlink.com 1.10,2013-02-13 07:59:00,